Flag for Canada Weather past 2 weeks in Grande Prairie, Alberta, Canada

Now
48 °F

Passing clouds.


Feels Like: 42 °F
Forecast: 36 / 47 °F
Wind: 18 mph from West

Location: Grande Prairie

Current Time: Mar 28, 2015 at 1:04:22 PM

Latest Report: Mar 28, 2015 at 12:00 PM


Visibility: 25 mi

Pressure: 29.85 "Hg

Humidity: 58%

Dew point: 34 °F

Location of Grande PrairieLocation

Historic Weather in Grande Prairie — Graph

°F

Grande Prairie temperature yesterday

Maximum temperature yesterday: 55 °F (at 3:00 PM)
Minimum temperature yesterday: 36 °F (at 9:00 AM)
Average temperature yesterday: 44 °F

Past Weeks' High & Low Weather Summary

 TemperatureHumidityPressure
High59 °F (Mar 13, 4:00 PM)100% (Mar 15, 9:00 AM)30.45 "Hg (Mar 15, 9:00 AM)
Low12 °F (Mar 23, 4:00 AM)34% (Mar 13, 4:00 PM)29.17 "Hg (Mar 14, 5:00 PM)
Average33 °F78%30.01 "Hg
* Reported Mar 13 11:00 AM — Mar 28 11:00 AM, Grande Prairie, Weather by CustomWeather, © 2015

Note: Actual official high and low records may vary slightly from our data, if they occured in-between our weather recording intervals... More about our weather records

Advertising

Grande Prairie weather history for previous 24 hours

 ConditionsComfort  
Time TempWeatherWind HumidityBarometerVisibility
11:00 AM
Sat, Mar 28
46 °FPassing clouds.18 mph66%29.83 "Hg25 mi
10:00 AM41 °FPassing clouds.14 mph87%29.82 "Hg25 mi
9:00 AM39 °FPartly sunny.10 mph87%29.79 "Hg25 mi
8:00 AM39 °FPassing clouds.5 mph87%29.77 "Hg25 mi
7:00 AM39 °FRain. Mostly cloudy.12 mph87%29.74 "Hg25 mi
6:00 AM37 °FLight rain. Low clouds.5 mph100%29.71 "Hg20 mi
5:00 AM37 °FLow clouds.6 mph100%29.70 "Hg20 mi
4:00 AM37 °FPassing clouds.5 mph100%29.69 "Hg25 mi
3:00 AM39 °FPassing clouds.6 mph93%29.69 "Hg25 mi
2:00 AM39 °FPartly cloudy.7 mph100%29.70 "Hg25 mi
1:00 AM41 °FLight rain. Mostly cloudy.9 mph93%29.72 "Hg20 mi
12:00 AM41 °FLight rain. Mostly cloudy.6 mph93%29.72 "Hg15 mi
11:00 PM
Fri, Mar 27
43 °FLight rain. Overcast.10 mph93%29.74 "Hg8 mi
10:00 PM43 °FLight rain. Overcast.7 mph93%29.74 "Hg8 mi
9:00 PM43 °FLight rain. Overcast.5 mph93%29.73 "Hg10 mi
8:00 PM45 °FLight rain. Mostly cloudy.5 mph93%29.72 "Hg10 mi
7:00 PM48 °FLight rain. Mostly cloudy.2 mph87%29.72 "Hg10 mi
6:00 PM52 °FLight rain. Overcast.5 mph72%29.72 "Hg15 mi
5:00 PM52 °FLight rain. Mostly cloudy.5 mph72%29.74 "Hg20 mi
4:00 PM54 °FScattered showers. Mostly cloudy.5 mph72%29.76 "Hg25 mi
3:00 PM55 °FMostly cloudy.6 mph59%29.78 "Hg25 mi
2:00 PM52 °FMore clouds than sun.3 mph67%29.81 "Hg25 mi
1:00 PM48 °FPartly sunny.No wind71%29.83 "Hg25 mi
Weather by CustomWeather, © 2015

See weather overviewHow to use our weather pages